EW1922 Weather Reports


time (UTC)temp
C
wind
direction
speed
KPH
gust
KPH
rain 1hr
cm
rain 24hr
cm
rain mn
cm
humidity
%
barometer
mb
20260506004557 21 197 4.8 16.1 0.00 0.41 0.13 37 1007.9
20260506003107 21 185 4.8 12.9 0.00 0.41 0.13 38 1007.9
20260506001616 21 148 6.4 12.9 0.00 0.41 0.13 38 1008.0
20260506000058 20 87 6.4 14.5 0.00 0.64 0.13 38 1008.1
20260505234611 21 209 3.2 9.7 0.00 0.64 0.13 38 1008.2
20260505233054 21 249 8.0 16.1 0.00 0.64 0.13 39 1008.4
20260505231553 20 255 4.8 14.5 0.00 0.64 0.13 39 1008.5
20260505230052 20 201 6.4 11.3 0.00 0.64 0.13 40 1008.6
20260505224551 20 212 6.4 14.5 0.00 0.64 0.13 41 1008.9
20260505223102 19 191 6.4 14.5 0.00 0.64 0.13 43 1009.1
20260505221547 19 185 3.2 12.9 0.00 0.64 0.13 44 1009.3
20260505220048 18 359 1.6 11.3 0.00 0.64 0.13 44 1009.6
20260505214555 19 199 3.2 8.0 0.00 0.64 0.13 43 1009.7
20260505213045 18 80 4.8 14.5 0.00 0.64 0.13 45 1009.9
20260505211549 18 167 8.0 14.5 0.00 0.64 0.13 47 1010.0
20260505210040 17 359 4.8 11.3 0.00 0.66 0.13 50 1010.3
20260505204539 17 174 6.4 14.5 0.00 0.66 0.13 56 1010.5
20260505203049 16 231 4.8 12.9 0.00 0.66 0.13 55 1010.6
20260505201534 16 153 4.8 12.9 0.00 0.66 0.13 60 1010.6
20260505200030 15 206 6.4 12.9 0.00 0.69 0.13 59 1010.8
20260505194527 15 359 4.8 9.7 0.00 0.69 0.13 64 1010.9
20260505193025 14 359 1.6 16.1 0.00 0.69 0.13 64 1010.9
20260505191524 14 359 4.8 17.7 0.00 0.69 0.13 64 1010.9
20260505190029 14 359 3.2 12.9 0.00 0.71 0.13 64 1010.8
20260505184529 14 359 3.2 16.1 0.00 0.71 0.13 65 1010.9
20260505183025 13 359 3.2 9.7 0.00 0.71 0.13 67 1010.9
20260505181515 12 359 3.2 12.9 0.00 0.71 0.13 69 1010.8
20260505180011 12 359 4.8 9.7 0.00 0.71 0.13 72 1010.8
20260505174509 11 359 6.4 9.7 0.00 0.71 0.13 70 1010.8
20260505173005 11 359 8.0 16.1 0.00 0.71 0.13 72 1010.5
20260505171506 11 359 6.4 16.1 0.00 0.71 0.13 72 1010.3
20260505170000 11 359 8.0 19.3 0.00 0.71 0.13 73 1010.1
20260505164603 11 359 12.9 19.3 0.00 0.71 0.13 74 1010.0
20260505163059 11 359 9.7 19.3 0.00 0.71 0.13 74 1009.9
20260505161558 11 359 6.4 12.9 0.00 0.71 0.13 74 1009.7
20260505153054 11 359 1.6 6.4 0.00 0.71 0.13 77 1009.4
20260505151551 11 359 1.6 4.8 0.00 0.71 0.13 78 1009.2
20260505124534 9 144 4.8 11.3 0.00 0.71 0.13 79 1007.3
20260505123033 8 247 3.2 8.0 0.00 0.71 0.13 81 1007.1
20260505121537 9 359 3.2 9.7 0.00 0.71 0.13 81 1007.0
20260505120031 8 203 6.4 17.7 0.00 0.71 0.13 81 1006.9
20260505114530 8 202 3.2 9.7 0.00 0.71 0.13 82 1007.0
20260505113039 8 242 4.8 11.3 0.00 0.71 0.13 81 1006.9
20260505111540 8 359 6.4 17.7 0.00 0.71 0.13 82 1006.9
20260505101533 8 197 1.6 8.0 0.00 0.71 0.13 83 1006.9
20260505100026 8 241 6.4 9.7 0.00 0.71 0.13 84 1007.1
20260505094527 8 229 8.0 12.9 0.00 0.71 0.13 84 1006.9
20260505093030 8 249 4.8 9.7 0.03 0.71 0.13 84 1007.2
20260505091523 8 214 4.8 9.7 0.03 0.71 0.13 84 1007.7
20260505090029 8 212 8.0 17.7 0.05 0.71 0.13 84 1007.8
20260505084528 8 253 8.0 17.7 0.10 0.71 0.13 84 1007.3
20260505083022 8 212 4.8 14.5 0.08 0.71 0.10 83 1007.6
20260505081522 8 359 6.4 17.7 0.08 0.71 0.10 83 1007.7
20260505080027 8 210 8.0 22.5 0.05 0.66 0.05 83 1007.9
20260505074518 8 359 12.9 24.1 0.15 0.64 0.03 82 1007.6
20260505073019 8 201 12.9 20.9 0.20 0.64 0.03 83 1007.5
20260505071513 8 359 11.3 24.1 0.23 0.64 0.03 81 1007.2
20260505070020 9 359 9.7 20.9 0.23 0.61 0.61 80 1007.3
20260505064512 9 359 11.3 20.9 0.08 0.46 0.46 77 1007.7
20260505063003 10 359 11.3 32.2 0.05 0.43 0.43 75 1007.0
20260505061502 10 359 11.3 20.9 0.03 0.41 0.41 73 1007.0
20260505054600 10 359 9.7 17.7 0.00 0.38 0.38 72 1006.7
20260505053059 10 359 16.1 24.1 0.00 0.38 0.38 72 1006.6
20260505051556 10 359 11.3 20.9 0.00 0.38 0.38 73 1006.8
20260505041557 10 359 9.7 20.9 0.00 0.38 0.38 70 1006.5
20260505040101 11 359 8.0 16.1 0.00 0.38 0.38 72 1006.5
20260505034554 10 359 8.0 19.3 0.00 0.38 0.38 73 1006.1
20260505033100 10 359 8.0 14.5 0.00 0.38 0.38 74 1005.7
20260505031555 11 359 11.3 20.9 0.00 0.38 0.38 73 1006.1
20260505030050 10 359 14.5 25.7 0.00 0.38 0.38 75 1006.1
20260505024550 10 359 14.5 24.1 0.00 0.38 0.38 76 1006.2
20260505023048 11 359 12.9 25.7 0.00 0.38 0.38 76 1006.0
20260505021547 11 359 14.5 32.2 0.00 0.38 0.38 76 1005.7
20260505020045 11 359 11.3 20.9 0.03 0.38 0.38 77 1005.5
20260505014545 11 359 9.7 24.1 0.05 0.38 0.38 76 1004.9
20260505013041 11 359 11.3 20.9 0.05 0.38 0.38 75 1004.9
20260505011544 11 359 11.3 17.7 0.05 0.38 0.38 75 1005.6
20260505010048 11 359 8.0 16.1 0.03 0.36 0.36 74 1006.4